Location: Gorze? G�rny
(49.8500°N, 19.5000°E)
Time: 04:24:36
(UTC+00:00)

Cosmos 1842 - Pass Details

Date: 13 May 2021
Orbit: 521 x 535 km, 82.5° (Epoch: 20 June)

Event Time Altitude Azimuth Distance (km) Brightness Sun altitude
Exits shadow 23:07:42 41° 110° (ESE) 776 3.9 -21.2°
Maximum altitude 23:08:05 42° 93° (E) 759 4.0 -21.2°
Drops below altitude 10° 23:11:46 10° 23° (NNE) 1,778 7.0 -21.1°
Sets 23:13:59 0° 16° (NNE) 2,675 8.4 -21.1°
